When you browse on this site, cookies collect data to enhance your experience and personalize the content and advertising you see.
Visit our Privacy Policy to learn more. By continuing to use the site, you agree to this use of cookies and data.
  • în România
  • Lista ţărilor
  • Pe 7 zile
  • Temperatura apei
  • Meteo pe hartă
  • Widget-uri
  • user-avatar
    Intrare

    Meteo pe oră la Konstantyna

    Astăzi, 25 Mai, Luni

    Timp Temperatura Precipitaţii Vânt Presiune Umiditate
    00:00 +16°C° 0 mm 1 m/s 715 mmHg 71%
    01:00 +16°C° 0 mm 1 m/s 715 mmHg 70%
    02:00 +15°C° 0 mm 0 m/s 715 mmHg 69%
    03:00 +15°C° 0 mm 0 m/s 715 mmHg 67%
    04:00 +16°C° 0 mm 0 m/s 715 mmHg 63%
    05:00 +17°C° 0 mm 0 m/s 715 mmHg 59%
    06:00 +18°C° 0 mm 0 m/s 715 mmHg 54%
    07:00 +20°C° 0 mm 0 m/s 716 mmHg 49%
    08:00 +24°C° 0 mm 1 m/s 716 mmHg 43%
    09:00 +26°C° 0 mm 1 m/s 716 mmHg 38%
    10:00 +27°C° 0 mm 2 m/s 716 mmHg 36%
    11:00 +28°C° 0 mm 2 m/s 716 mmHg 34%
    12:00 +29°C° 0 mm 3 m/s 716 mmHg 34%
    13:00 +29°C° 0 mm 3 m/s 716 mmHg 34%
    14:00 +28°C° 0 mm 4 m/s 715 mmHg 35%
    15:00 +28°C° 0 mm 4 m/s 715 mmHg 35%
    16:00 +27°C° 0 mm 3 m/s 715 mmHg 42%
    17:00 +25°C° 0 mm 3 m/s 715 mmHg 49%
    18:00 +22°C° 0 mm 3 m/s 714 mmHg 56%
    19:00 +20°C° 0 mm 2 m/s 715 mmHg 62%
    20:00 +20°C° 0 mm 1 m/s 715 mmHg 67%
    21:00 +18°C° 0 mm 1 m/s 715 mmHg 72%
    22:00 +18°C° 0 mm 1 m/s 715 mmHg 72%
    23:00 +15°C° 0 mm 0 m/s 714 mmHg 71%

    Mâine, 26 Mai, Marţi

    Timp Temperatura Precipitaţii Vânt Presiune Umiditate
    00:00 +15°C° 0 mm 0 m/s 714 mmHg 71%
    01:00 +15°C° 0 mm 0 m/s 714 mmHg 70%
    02:00 +14°C° 0 mm 0 m/s 714 mmHg 70%
    03:00 +14°C° 0 mm 0 m/s 714 mmHg 69%
    04:00 +16°C° 0 mm 0 m/s 714 mmHg 65%
    05:00 +17°C° 0 mm 0 m/s 714 mmHg 60%
    06:00 +18°C° 0 mm 0 m/s 714 mmHg 56%
    07:00 +20°C° 0 mm 0 m/s 715 mmHg 49%
    08:00 +24°C° 0 mm 1 m/s 715 mmHg 43%
    09:00 +26°C° 0 mm 1 m/s 716 mmHg 36%
    10:00 +27°C° 0 mm 2 m/s 716 mmHg 35%
    11:00 +28°C° 0 mm 3 m/s 715 mmHg 33%
    12:00 +29°C° 0 mm 3 m/s 715 mmHg 32%
    13:00 +29°C° 0 mm 4 m/s 715 mmHg 34%
    14:00 +28°C° 0 mm 4 m/s 715 mmHg 37%
    15:00 +28°C° 0 mm 4 m/s 714 mmHg 39%
    16:00 +26°C° 0 mm 4 m/s 714 mmHg 45%
    17:00 +25°C° 0 mm 3 m/s 714 mmHg 51%
    18:00 +22°C° 0 mm 3 m/s 713 mmHg 57%
    19:00 +21°C° 0 mm 2 m/s 713 mmHg 62%
    20:00 +20°C° 0 mm 1 m/s 714 mmHg 67%
    21:00 +18°C° 0 mm 1 m/s 714 mmHg 72%
    22:00 +18°C° 0 mm 1 m/s 713 mmHg 72%
    23:00 +18°C° 0 mm 1 m/s 713 mmHg 71%

    Poimâine, 27 Mai, Miercuri

    Timp Temperatura Precipitaţii Vânt Presiune Umiditate
    00:00 +16°C° 0 mm 1 m/s 713 mmHg 71%
    01:00 +16°C° 0 mm 1 m/s 713 mmHg 71%
    02:00 +15°C° 0 mm 0 m/s 713 mmHg 72%
    03:00 +14°C° 0 mm 0 m/s 713 mmHg 72%
    04:00 +15°C° 0 mm 0 m/s 713 mmHg 68%
    05:00 +16°C° 0 mm 0 m/s 713 mmHg 64%
    06:00 +17°C° 0 mm 0 m/s 713 mmHg 61%
    07:00 +21°C° 0 mm 1 m/s 714 mmHg 55%
    08:00 +23°C° 0 mm 1 m/s 714 mmHg 49%
    09:00 +25°C° 0 mm 2 m/s 715 mmHg 43%
    10:00 +26°C° 0 mm 2 m/s 715 mmHg 41%
    11:00 +27°C° 0 mm 3 m/s 715 mmHg 39%
    12:00 +28°C° 0 mm 4 m/s 715 mmHg 37%
    13:00 +28°C° 0 mm 4 m/s 714 mmHg 38%
    14:00 +27°C° 0 mm 4 m/s 714 mmHg 39%
    15:00 +27°C° 0 mm 5 m/s 714 mmHg 41%
    16:00 +26°C° 0 mm 4 m/s 714 mmHg 47%
    17:00 +23°C° 0 mm 4 m/s 714 mmHg 53%
    18:00 +21°C° 0 mm 3 m/s 714 mmHg 58%
    19:00 +20°C° 0 mm 3 m/s 714 mmHg 62%
    20:00 +18°C° 0 mm 2 m/s 714 mmHg 66%
    21:00 +18°C° 0 mm 1 m/s 714 mmHg 70%
    22:00 +17°C° 0 mm 2 m/s 714 mmHg 69%
    23:00 +16°C° 0 mm 2 m/s 714 mmHg 69%

    28 Mai, Joi

    Timp Temperatura Precipitaţii Vânt Presiune Umiditate
    00:00 +16°C° 0 mm 2 m/s 714 mmHg 68%
    01:00 +16°C° 0 mm 2 m/s 714 mmHg 67%
    02:00 +16°C° 0 mm 2 m/s 714 mmHg 67%
    03:00 +16°C° 0 mm 2 m/s 714 mmHg 66%
    04:00 +17°C° 0 mm 2 m/s 714 mmHg 64%
    05:00 +19°C° 0 mm 1 m/s 714 mmHg 61%
    06:00 +20°C° 0 mm 1 m/s 714 mmHg 58%
    07:00 +21°C° 0 mm 1 m/s 715 mmHg 53%
    08:00 +23°C° 0 mm 1 m/s 715 mmHg 48%
    09:00 +25°C° 0 mm 1 m/s 715 mmHg 44%
    10:00 +26°C° 0 mm 2 m/s 715 mmHg 41%
    11:00 +28°C° 0 mm 2 m/s 715 mmHg 38%
    12:00 +29°C° 0 mm 2 m/s 715 mmHg 35%
    13:00 +28°C° 0 mm 3 m/s 714 mmHg 37%
    14:00 +28°C° 0 mm 3 m/s 714 mmHg 39%
    15:00 +28°C° 0 mm 4 m/s 713 mmHg 40%
    16:00 +26°C° 0.2 mm 3 m/s 713 mmHg 47%
    17:00 +24°C° 0.2 mm 3 m/s 713 mmHg 54%
    18:00 +23°C° 0.2 mm 2 m/s 712 mmHg 61%
    19:00 +20°C° 0 mm 2 m/s 712 mmHg 65%
    20:00 +20°C° 0 mm 1 m/s 712 mmHg 70%
    21:00 +19°C° 0 mm 1 m/s 712 mmHg 75%
    22:00 +19°C° 0 mm 1 m/s 711 mmHg 74%
    23:00 +19°C° 0 mm 1 m/s 711 mmHg 74%

    29 Mai, Vineri

    Timp Temperatura Precipitaţii Vânt Presiune Umiditate
    00:00 +19°C° 0 mm 1 m/s 711 mmHg 73%
    01:00 +19°C° 0 mm 1 m/s 711 mmHg 71%
    02:00 +19°C° 0 mm 1 m/s 711 mmHg 69%
    03:00 +19°C° 0 mm 1 m/s 710 mmHg 67%
    04:00 +19°C° 0 mm 2 m/s 711 mmHg 64%
    05:00 +20°C° 0 mm 2 m/s 711 mmHg 60%
    06:00 +21°C° 0 mm 2 m/s 711 mmHg 56%
    07:00 +24°C° 0.1 mm 3 m/s 711 mmHg 51%
    08:00 +25°C° 0.1 mm 3 m/s 711 mmHg 46%
    09:00 +27°C° 0.1 mm 4 m/s 711 mmHg 41%
    10:00 +28°C° 0 mm 4 m/s 711 mmHg 40%
    11:00 +29°C° 0 mm 4 m/s 711 mmHg 38%
    12:00 +30°C° 0 mm 4 m/s 711 mmHg 37%
    13:00 +29°C° 0.2 mm 4 m/s 710 mmHg 42%
    14:00 +28°C° 0.2 mm 4 m/s 710 mmHg 47%
    15:00 +27°C° 0.2 mm 4 m/s 709 mmHg 52%
    16:00 +25°C° 0.8 mm 3 m/s 709 mmHg 58%
    17:00 +24°C° 0.8 mm 3 m/s 709 mmHg 64%
    18:00 +23°C° 0.8 mm 2 m/s 709 mmHg 71%
    19:00 +22°C° 0.6 mm 1 m/s 709 mmHg 75%
    20:00 +20°C° 0.6 mm 1 m/s 709 mmHg 79%
    21:00 +19°C° 0.6 mm 1 m/s 709 mmHg 84%
    22:00 +19°C° 0.1 mm 1 m/s 709 mmHg 85%
    23:00 +17°C° 0.1 mm 0 m/s 708 mmHg 85%

    30 Mai, Sâmbătă

    Timp Temperatura Precipitaţii Vânt Presiune Umiditate
    00:00 +16°C° 0.1 mm 0 m/s 708 mmHg 86%
    01:00 +16°C° 0.1 mm 0 m/s 708 mmHg 87%
    02:00 +18°C° 0.1 mm 1 m/s 708 mmHg 88%
    03:00 +16°C° 0.1 mm 1 m/s 707 mmHg 89%
    04:00 +18°C° 0 mm 1 m/s 708 mmHg 88%
    05:00 +18°C° 0 mm 1 m/s 708 mmHg 86%
    06:00 +19°C° 0 mm 1 m/s 708 mmHg 85%
    07:00 +20°C° 0 mm 1 m/s 709 mmHg 80%
    08:00 +20°C° 0 mm 2 m/s 709 mmHg 74%
    09:00 +21°C° 0 mm 2 m/s 709 mmHg 68%
    10:00 +22°C° 0 mm 3 m/s 709 mmHg 60%
    11:00 +25°C° 0 mm 3 m/s 710 mmHg 52%
    12:00 +26°C° 0 mm 4 m/s 710 mmHg 44%
    13:00 +26°C° 0 mm 4 m/s 710 mmHg 44%
    14:00 +26°C° 0 mm 5 m/s 709 mmHg 43%
    15:00 +25°C° 0 mm 5 m/s 709 mmHg 42%
    16:00 +23°C° 0 mm 4 m/s 709 mmHg 47%
    17:00 +22°C° 0 mm 4 m/s 709 mmHg 51%
    18:00 +20°C° 0 mm 3 m/s 709 mmHg 56%
    19:00 +18°C° 0 mm 2 m/s 709 mmHg 63%
    20:00 +17°C° 0 mm 2 m/s 709 mmHg 70%
    21:00 +15°C° 0 mm 1 m/s 709 mmHg 76%
    22:00 +15°C° 0 mm 1 m/s 709 mmHg 78%
    23:00 +14°C° 0 mm 1 m/s 709 mmHg 79%
    Arată mai mult